MYNNMYGF

Guest
Details From MYNN - Nassau Intl
To MYGF - Grand Bahama Intl
Flight Number -
Tags decoded
Created
Modified
Stats Distance 113 nm / 209 km
Max Altitude 0 ft / 0 m
Waypoints 4
Social Downloads 1
Likes 0
Share VATSIM

Download

Looking for another format? Having issues loading an existing format? Contact us
Advertisement - Login to hide

Notes

Requested: MYNN SYDNY BR65V LAUTH MYGF

Route

MYNN SYDNY BR65V LAUTH MYGF

ID Type Via Altitude Latitude Longitude Leg Dist Tot Dist Heading (true) Name
O MYNN APT - 0 ft / 0 m 25.03860˚ -77.46662˚ - 0 nm - Nassau Intl
SYDNY FIX - 0 ft / 0 m 25.56259˚ -77.88107˚ 38 nm 38 nm 325° / 324° -
LAUTH FIX BR65V (AWY-LO) 0 ft / 0 m 26.12666˚ -78.34300˚ 42 nm 80 nm 324° / 324° -
O MYGF APT - 0 ft / 0 m 26.55868˚ -78.69555˚ 32 nm 112 nm 324° / 324° Grand Bahama Intl

Altitude Profile

Advertisement - Login to hide

MYNN

Details ICAO MYNN (NAS)
Name Nassau Intl
Region Bahamas
Timezone America/Nassau (UTC-5.0)
Stats Elevation 16 ft / 5 m (AMSL)
Location 25.038596° -77.466621°
Runways 2
Magnetic Variation 8.218° W

METAR

MYNN 122100Z 26006KT 9999 SCT022 23/13 A2996

Decode

TAF

TAF MYNN 121600Z 1218/1318 29007KT 9999 FEW020 BECMG 1303/1305 28017KT BECMG 1314/1315 35015KT

Decode

Departure Runways

ID Width Length Bearing (true) Bearing (mag) Surface Threshold Offset Overrun Length
09 151 ft / 46 m 8,311 ft / 2,533 m 89.62° 97.84° Asphalt 0 ft / 0 m 0 ft / 0 m
14 151 ft / 46 m 11,364 ft / 3,464 m 134.83° 143.05° Asphalt 226 ft / 69 m 0 ft / 0 m
27 151 ft / 46 m 8,311 ft / 2,533 m 269.64° 277.86° Asphalt 0 ft / 0 m 0 ft / 0 m
32 151 ft / 46 m 11,364 ft / 3,464 m 314.84° 323.06° Asphalt 0 ft / 0 m 0 ft / 0 m

MYGF

Details ICAO MYGF (FPO)
Name Grand Bahama Intl
Region Bahamas
Timezone America/Nassau (UTC-5.0)
Stats Elevation 7 ft / 2 m (AMSL)
Location 26.558684° -78.695553°
Runways 1
Magnetic Variation 7.724° W

METAR

MYGF 122100Z 30012KT 9999 FEW025 21/11 A2994

Decode

TAF

TAF MYGF 121100Z 1212/1312 VRB02KT 9999 SCT030 BECMG 1218/1220 28010G20KT

Decode

Destination Runways

ID Width Length Bearing (true) Bearing (mag) Surface Threshold Offset Overrun Length
06 151 ft / 46 m 11,016 ft / 3,358 m 60.89° 68.61° Asphalt 0 ft / 0 m 194 ft / 59 m
24 151 ft / 46 m 11,016 ft / 3,358 m 240.91° 248.63° Asphalt 0 ft / 0 m 200 ft / 61 m

Approach Navaids

Runway Type Ident Frequency Range Bearing (true) Bearing (mag) Slope Elevation
06 Localiser IZFP 109.70 MHz 18 nm / 33 km 60.91° 68.63° - 7 ft / 2 m (AMSL)
06 Glidescope IZFP 109.70 MHz 10 nm / 19 km 60.90° 68.63° 3.00° 7 ft / 2 m (AMSL)

Popular Alternatives